Regional Weather Roundup
Issued by NWS

Home | Current Version | Previous Version | Graphics & Text | Print | Product List | Glossary On
Versions: 1 2 3 4 5 6 7 8 9 10 11 12 13 14 15 16 17 18 19 20 21 22 23 24 25 26 27 28 29 30 31 32 33 34 35 36 37 38 39 40 41 42 43 44 45 46 47 48 49 50
000
ASUS43 KIND 220800
RWRIN

WEATHER ROUNDUP FOR INDIANA
NATIONAL WEATHER SERVICE INDIANAPOLIS IN
400 AM EDT SUN OCT 22 2017

NOTE: "FAIR" INDICATES FEW OR NO CLOUDS BELOW 12,000 FEET WITH NO
SIGNIFICANT WEATHER AND/OR OBSTRUCTIONS TO VISIBILITY.

* - STATION DOES NOT REPORT WEATHER SUCH AS PRECIPITATION OR FOG.

+ - STATION NOT QUALITY CONTROLLED BY THE NATIONAL WEATHER SERVICE.
    USE DATA WITH CAUTION...ESPECIALLY DEWPOINT AND RELATIVE
    HUMIDITY OBSERVATIONS.

INZ001>003-010>013-019-020-220900-
NORTHWEST INDIANA

CITY           SKY/WX    TMP DP  RH WIND       PRES   REMARKS
KNOX *+        CLOUDY    63  50  63 S12G18    30.05F
LA PORTE +     CLOUDY    63  50  63 S8        30.05F
MICHIGAN CITY+ CLOUDY    63  50  63 S7        30.04F
MONTICELLO +   CLOUDY    63  49  59 SE7       30.05F
RENSSELAER +   PTCLDY    63  43  48 S12       30.04F

$$

LMZ046-743>745-220900-
SOUTHERN LAKE MICHIGAN

STATION/POSITION TIME  TEMP    WIND        PRES    WAVE
                       AIR SEA DIR/SP/G            HT
                 (UTC) (F)     (DEG/KT/KT) (MB)    (FT)
BURNS HARBOR     0740   65     170/ 12/ 21 1016.6F
MICHIGAN CITY    0730   65     150/ 13/ 17   N/A
5NW MICH CITY    0750   63 58  180/ 16/ 19   N/A     2

$$

INZ004-005-014>016-021>024-220900-
NORTH CENTRAL INDIANA

CITY           SKY/WX    TMP DP  RH WIND       PRES   REMARKS
GOSHEN         PTCLDY    61  46  57 SE8       30.09F
PERU/GRISSOM   PTCLDY    60  48  64 S9        30.08F
SOUTH BEND     CLOUDY    64  50  60 S10       30.06F
WARSAW +       CLOUDY    61  46  59 SE3       30.10F

$$

INZ006>009-017-018-025>027-220900-
NORTHEAST INDIANA

CITY           SKY/WX    TMP DP  RH WIND       PRES   REMARKS
AUBURN +       CLOUDY    54  46  76 CALM      30.13F
FORT WAYNE     CLOUDY    58  46  64 S3        30.14F
KENDALLVILLE + PTCLDY    59  47  64 S8        30.13F

$$

INZ028-029-035-036-043>045-051>053-220900-
WEST CENTRAL INDIANA

CITY           SKY/WX    TMP DP  RH WIND       PRES   REMARKS
LAFAYETTE      CLOUDY    62  52  69 SE6       30.06F
TERRE HAUTE    CLOUDY    62  51  67 SE8       30.07F

$$

INZ030>032-037>040-046>048-054>057-064-065-220900-
CENTRAL INDIANA

CITY           SKY/WX    TMP DP  RH WIND       PRES   REMARKS
FRANKFORT +    CLOUDY    62  50  65 CALM      30.10F
GREENWOOD *+   CLOUDY    61  51  67 SE7       30.14F
INDIANAPOLIS   PTCLDY    58  49  72 SE9       30.11F
-EAGLE CREEK   CLOUDY    60  48  64 SE5       30.10F
KOKOMO +       CLOUDY    60  48  64 S9        30.11F
MT COMFORT *+  CLOUDY    57  52  82 S8        30.13F
SHELBYVILLE    CLOUDY    58  47  66 S7        30.13F

$$

INZ033-034-041-042-049-050-058-059-220900-
EAST CENTRAL INDIANA

CITY           SKY/WX    TMP DP  RH WIND       PRES   REMARKS
MUNCIE         CLEAR     62  47  57 S8        30.13F
RICHMOND +     CLEAR     52  46  82 S9        30.17F

$$

INZ060-061-067>069-081>083-085>088-220900-
SOUTHWEST INDIANA

CITY           SKY/WX    TMP DP  RH WIND       PRES   REMARKS
EVANSVILLE     MOCLDY    64  54  69 S7        30.08F
HUNTINGBURG +  PTCLDY    65  54  67 SE8       30.10F

$$

INZ062-063-066-070>080-084-089>092-220900-
SOUTH CENTRAL AND SOUTHEAST INDIANA

CITY           SKY/WX    TMP DP  RH WIND       PRES   REMARKS
BLOOMINGTON    CLEAR     58  47  66 CALM      30.11F
MADISON *+     PTCLDY    61  48  63 SE7       30.18F
SEYMOUR +      PTCLDY    57  48  72 SE5       30.14S

$$





USA.gov is the U.S. government's official web portal to all federal, state and local government web resources and services.